Weather History for CYPR - February, 2013

Change the Weather History Date:

Saturday, February 9, 2013

  Actual Average Record
Temperature  
Mean Temperature 42 °F -  
Max Temperature 46 °F 40 °F 53 °F (2012)
Min Temperature 39 °F 30 °F 15 °F (2014)
Degree Days  
Heating Degree Days 22    
Moisture  
Dew Point 41 °F    
Average Humidity 97    
Maximum Humidity 100    
Minimum Humidity 81    
Precipitation  
Precipitation 0.01 in - - ()
Sea Level Pressure  
Sea Level Pressure 30.25 in    
Wind  
Wind Speed 3 mph ()    
Max Wind Speed 8 mph    
Max Gust Speed -    
Visibility 6.2 miles    
Events Rain    
Averages and records for this station are not official NWS values.
T = Trace of Precipitation, MM = Missing Value Source: Averaged Metar Reports

Daily Weather History Graph

Daily Weather History Graph

Search for Another Location

Airport or City:

Trip Planner

Search our weather history database for the weather conditions in past years. The results will help you decide how hot, cold, wet, or windy it might be!

Date:

Astronomy

Feb. 09, 2013 Rise Set
Actual Time 8:13 AM PST 5:38 PM PST
Civil Twilight 7:36 AM PST 6:16 PM PST
Nautical Twilight 6:54 AM PST 6:58 PM PST
Astronomical Twilight 6:12 AM PST 7:40 PM PST
Moon 7:27 AM PST (2/9) 5:36 PM PST (2/9)
Length of Visible Light 10h 40m
Length of Day
9h 25m
Waning Crescent, 0% of the Moon is Illuminated
Feb 9
Waning Crescent
Feb 9
New
Feb 17
First Quarter
Feb 25
Full
Mar 4
Last Quarter

Hourly Weather History & Observations

Time (PST) Temp. Windchill Dew Point Humidity Pressure Visibility Wind Dir Wind Speed Gust Speed Precip Events Conditions
12:00 AM 41.0 °F - 41.0 °F 100% 30.18 in 6.0 mi Variable 2.3 mph - N/A   Overcast
12:15 AM 41.0 °F 38.0 °F 41.0 °F 100% 30.18 in 9.0 mi South 4.6 mph - N/A   Overcast
12:21 AM 41.0 °F - 41.0 °F 100% 30.18 in 5.0 mi Variable 2.3 mph - N/A   Overcast
12:30 AM 41.0 °F 39.0 °F 41.0 °F 100% 30.19 in 3.0 mi South 3.5 mph - N/A   Overcast
12:47 AM 41.0 °F 39.0 °F 41.0 °F 100% 30.20 in 2.5 mi SE 3.5 mph - N/A   Overcast
12:48 AM 41.0 °F 39.0 °F 41.0 °F 100% 30.20 in 2.5 mi SSE 3.5 mph - N/A   Overcast
12:51 AM 41.0 °F - 41.0 °F 100% 30.20 in 1.8 mi SSE 2.3 mph - N/A   Overcast
12:52 AM 41.0 °F - 41.0 °F 100% 30.20 in 1.8 mi SE 2.3 mph - N/A   Overcast
12:54 AM 41.0 °F 38.0 °F 41.0 °F 100% 30.20 in 1.5 mi SSE 4.6 mph - N/A Rain Light Rain
1:00 AM 41.0 °F 38.0 °F 41.0 °F 100% 30.20 in 1.8 mi SSE 4.6 mph - N/A Rain Light Rain
1:07 AM 41.0 °F 38.0 °F 41.0 °F 100% 30.20 in 1.8 mi SSE 4.6 mph - N/A Rain Light Rain
1:14 AM 41.0 °F 39.0 °F 41.0 °F 100% 30.21 in 2.2 mi South 3.5 mph - N/A Rain Light Rain
1:25 AM 41.0 °F 38.0 °F 41.0 °F 100% 30.21 in 2.5 mi SSE 4.6 mph - N/A Rain Light Rain
1:28 AM 41.0 °F 37.1 °F 41.0 °F 100% 30.21 in 2.5 mi SSE 5.8 mph - N/A Rain Light Rain
1:49 AM 41.0 °F 38.0 °F 41.0 °F 100% 30.22 in 3.0 mi SSE 4.6 mph - N/A Rain Light Rain
1:56 AM 41.0 °F - 41.0 °F 100% 30.22 in 4.0 mi Variable 2.3 mph - N/A   Overcast
2:00 AM 41.0 °F 39.0 °F 41.0 °F 100% 30.22 in 3.0 mi SE 3.5 mph - N/A   Overcast
2:33 AM 41.0 °F 39.0 °F 41.0 °F 100% 30.23 in 4.0 mi SE 3.5 mph - N/A   Overcast
2:37 AM 41.0 °F 38.0 °F 41.0 °F 100% 30.23 in 7.0 mi SE 4.6 mph - N/A   Overcast
2:57 AM 41.0 °F 38.0 °F 41.0 °F 100% 30.23 in 5.0 mi East 4.6 mph - N/A   Overcast
3:00 AM 41.0 °F 38.0 °F 41.0 °F 100% 30.23 in 4.0 mi East 4.6 mph - N/A   Overcast
3:24 AM 41.0 °F - 41.0 °F 100% 30.24 in 3.0 mi Calm Calm - N/A   Overcast
3:26 AM 41.0 °F - 41.0 °F 100% 30.24 in 2.2 mi Calm Calm - N/A   Overcast
3:29 AM 41.0 °F - 41.0 °F 100% 30.24 in 1.8 mi Calm Calm - N/A   Overcast
3:37 AM 41.0 °F - 41.0 °F 100% 30.23 in 1.2 mi Variable 2.3 mph - N/A Rain Light Rain
3:58 AM 41.0 °F - 41.0 °F 100% 30.23 in 1.5 mi Calm Calm - N/A   Overcast
4:00 AM 41 °F - 41 °F 98% 30.23 in 1 mi ESE 2.3 mph - -   Mist
4:00 AM 41.0 °F - 41.0 °F 100% 30.23 in 1.5 mi SE 2.3 mph - N/A   Overcast
4:07 AM 41.0 °F 39.0 °F 41.0 °F 100% 30.23 in 2.0 mi SE 3.5 mph - N/A   Overcast
4:09 AM 41.0 °F 39.0 °F 41.0 °F 100% 30.23 in 2.5 mi SE 3.5 mph - N/A   Overcast
4:11 AM 41.0 °F 39.0 °F 41.0 °F 100% 30.23 in 3.0 mi SE 3.5 mph - N/A   Overcast
4:15 AM 41.0 °F - 41.0 °F 100% 30.23 in 7.0 mi ESE 2.3 mph - N/A   Overcast
5:00 AM 41.0 °F 39.0 °F 41.0 °F 100% 30.23 in 9.0 mi SE 3.5 mph - N/A   Overcast
6:00 AM 41.0 °F - 41.0 °F 100% 30.25 in 9.0 mi Calm Calm - N/A   Overcast
6:12 AM 41.0 °F - 41.0 °F 100% 30.25 in 9.0 mi Variable 2.3 mph - N/A   Overcast
6:40 AM 41.0 °F - 41.0 °F 100% 30.25 in 9.0 mi Variable 2.3 mph - N/A   Overcast
6:54 AM 41.0 °F 39.0 °F 41.0 °F 100% 30.25 in 9.0 mi East 3.5 mph - N/A   Overcast
7:21 AM 41.0 °F 38.0 °F 41.0 °F 100% 30.25 in 9.0 mi SE 4.6 mph - N/A   Overcast
7:22 AM 41.0 °F 38.0 °F 41.0 °F 100% 30.25 in 9.0 mi SE 4.6 mph - N/A   Overcast
7:41 AM 41.0 °F 39.0 °F 41.0 °F 100% 30.26 in 9.0 mi ESE 3.5 mph - N/A   Overcast
8:00 AM 41.0 °F 38.0 °F 41.0 °F 100% 30.26 in 9.0 mi ESE 4.6 mph - N/A   Overcast
8:13 AM 41.0 °F 39.0 °F 41.0 °F 100% 30.26 in 9.0 mi East 3.5 mph - N/A   Overcast
8:51 AM 41.0 °F 39.0 °F 41.0 °F 100% 30.27 in 9.0 mi ENE 3.5 mph - N/A   Overcast
9:00 AM 41.0 °F 38.0 °F 41.0 °F 100% 30.27 in 9.0 mi ENE 4.6 mph - N/A   Overcast
10:00 AM 42 °F - 41 °F 97% 30.27 in 10 mi East 3.5 mph - -   Overcast
10:00 AM 42.8 °F - 41.0 °F 93% 30.27 in 9.0 mi Variable 2.3 mph - N/A   Overcast
10:12 AM 42.8 °F - 42.8 °F 100% 30.27 in 9.0 mi Variable 2.3 mph - N/A   Overcast
10:37 AM 42.8 °F - 41.0 °F 93% 30.29 in 9.0 mi Calm Calm - N/A   Overcast
11:00 AM 42.8 °F - 42.8 °F 100% 30.30 in 9.0 mi Calm Calm - N/A   Overcast
11:15 AM 44.6 °F - 42.8 °F 93% 30.30 in 9.0 mi Variable 2.3 mph - N/A   Overcast
11:31 AM 44.6 °F 43.1 °F 42.8 °F 93% 30.30 in 9.0 mi ENE 3.5 mph - N/A   Overcast
12:00 PM 44.6 °F - 42.8 °F 93% 30.30 in 9.0 mi NE 2.3 mph - N/A   Overcast
12:37 PM 44.6 °F 43.1 °F 42.8 °F 93% 30.31 in 9.0 mi SSE 3.5 mph - N/A   Overcast
1:00 PM 44.6 °F 40.2 °F 41.0 °F 87% 30.30 in 9.0 mi SSE 8.1 mph - N/A   Overcast
1:07 PM 44.6 °F 40.7 °F 41.0 °F 87% 30.30 in 9.0 mi SSE 6.9 mph - N/A   Overcast
2:00 PM 46.4 °F 43.5 °F 41.0 °F 81% 30.30 in 9.0 mi SSE 5.8 mph - N/A   Overcast
3:00 PM 46.4 °F 42.4 °F 42.8 °F 87% 30.30 in 9.0 mi SSE 8.1 mph - N/A   Overcast
4:00 PM 46 °F - 42 °F 83% 30.30 in 10 mi SSE 3.5 mph - -   Overcast
4:00 PM 46.4 °F 45.2 °F 42.8 °F 87% 30.30 in 9.0 mi SSE 3.5 mph - N/A   Overcast
5:00 PM 44.6 °F 43.1 °F 42.8 °F 93% 30.29 in 9.0 mi SSE 3.5 mph - N/A   Overcast
6:00 PM 44.6 °F 41.4 °F 41.0 °F 87% 30.29 in 9.0 mi SE 5.8 mph - N/A   Overcast
7:00 PM 44.6 °F - 42.8 °F 93% 30.29 in 9.0 mi SSE 2.3 mph - N/A   Overcast
8:00 PM 44.6 °F - 41.0 °F 87% 30.29 in 9.0 mi Calm Calm - N/A   Overcast
9:00 PM 44.6 °F 40.7 °F 41.0 °F 87% 30.29 in 9.0 mi SE 6.9 mph - N/A   Overcast
10:00 PM 44 °F - 41 °F 84% 30.28 in 10 mi East 3.5 mph - -   Overcast
10:00 PM 44.6 °F 43.1 °F 41.0 °F 87% 30.28 in 9.0 mi East 3.5 mph - N/A   Overcast
11:00 PM 44.6 °F 40.2 °F 41.0 °F 87% 30.28 in 9.0 mi SE 8.1 mph - N/A   Overcast